This is the latest recevied weather packets stored in our database for station/object VE2JJ-13. If no packets are shown the sender has not sent any weather packets the latest 10 day(s).
| Time | Temp. | Humidity | Pressure | Rain* | Wind** | Luminosity | Snow |
|---|---|---|---|---|---|---|---|
| 1777993858 | 21.11° C | 58% | 993 hPa | 0 mm | - | - | - |
| 1777993561 | 20.56° C | 59% | 993 hPa | 0 mm | - | - | - |
| 1777993231 | 20° C | 59% | 993 hPa | 0 mm | - | - | - |
| 1777992932 | 20° C | 59% | 993 hPa | 0 mm | - | - | - |
| 1777992596 | 20° C | 60% | 993.2 hPa | 0 mm | - | - | - |
| 1777991967 | 18.89° C | 61% | 993 hPa | 0 mm | - | - | - |
| 1777991667 | 18.89° C | 61% | 993 hPa | 0 mm | - | - | - |
| 1777991367 | 19.44° C | 60% | 993 hPa | 0 mm | - | - | - |
| 1777991067 | 19.44° C | 60% | 993.3 hPa | 0 mm | - | - | - |
| 1777990769 | 18.89° C | 60% | 993.3 hPa | 0 mm | - | - | - |
| 1777990440 | 19.44° C | 60% | 993.5 hPa | 0 mm | - | - | - |
| 1777989808 | 18.33° C | 62% | 993.6 hPa | 0 mm | - | - | - |
| 1777989480 | 17.78° C | 63% | 993.6 hPa | 0 mm | - | - | - |
| 1777989147 | 17.22° C | 64% | 993.6 hPa | 0 mm | - | - | - |
| 1777988848 | 16.67° C | 66% | 993.6 hPa | 0 mm | - | - | - |
| 1777988251 | 16.11° C | 71% | 994 hPa | 0 mm | - | - | - |
| 1777987948 | 15.56° C | 75% | 994 hPa | 0.25 mm | - | - | - |
| 1777987646 | 14.44° C | 79% | 994.2 hPa | 0.51 mm | - | - | - |
| 1777987318 | 13.89° C | 80% | 994.2 hPa | 0.76 mm | - | - | - |
| 1777987019 | 13.33° C | 81% | 994.2 hPa | 0.76 mm | - | - | - |
| 1777986719 | 13.33° C | 81% | 994.2 hPa | 1.02 mm | - | - | - |
| 1777986420 | 13.33° C | 81% | 994.2 hPa | 1.02 mm | - | - | - |
| 1777986117 | 13.33° C | 82% | 994.1 hPa | 1.02 mm | - | - | - |
| 1777985817 | 13.33° C | 84% | 994.1 hPa | 1.02 mm | - | - | - |
| 1777985488 | 12.78° C | 84% | 994.5 hPa | 1.02 mm | - | - | - |
* Rain latest hour (hover to see other rain measurements)
** Current wind speed in m/s (hover to see current wind gust speed)